FDX39T LEMD-EDDP

Flight info

Callsign FDX39T
Flight time 2h 9m
Altitude 34000
Route PINAR DCT SEGRE DCT YAKXU DCT RONNY DCT TOPTU DCT TOU DCT GAI DCT MEN DCT NINUN DCT LATAM DCT ETREK DCT LTP DCT SOPLO DCT OMASI DCT KINNI DCT SOSAL DCT KORED DCT BERSU N871 DITON/N0471F350 DCT LOKTA DCT ETAGO DCT IBAGA T435 PIBAD T954 GOXLI GOXLI1V
Aircraft B77L/H-SDE1E2E3FGHIJ2J3J4J5M1RWXY/LB1D1

Departure

Time 2026-05-04 17:01
Airport Adolfo Suárez Madrid–Barajas Airport (LEMD)

Arrival

Time 2026-05-04 19:11
Airport Leipzig/Halle Airport (EDDP)
Time Latitude Longitude Altitude Speed Heading
2026-05-04 16:33 40.45900 -3.55930 1965 ft 0 kts 148°
2026-05-04 16:44 40.45899 -3.55930 1964 ft 0 kts 148°
2026-05-04 16:49 40.45865 -3.55851 1962 ft 11 kts 99°
2026-05-04 16:49 40.45842 -3.55603 1953 ft 17 kts 90°
2026-05-04 16:50 40.45919 -3.55392 1946 ft 16 kts 318°
2026-05-04 16:50 40.45958 -3.55598 1953 ft 8 kts 269°
2026-05-04 16:51 40.45958 -3.55661 1956 ft 2 kts 269°
2026-05-04 16:51 40.45958 -3.55694 1957 ft 5 kts 269°
2026-05-04 16:51 40.45957 -3.55841 1962 ft 10 kts 269°
2026-05-04 16:52 40.45956 -3.56075 1969 ft 15 kts 269°
2026-05-04 16:52 40.45958 -3.56221 1973 ft 17 kts 271°
2026-05-04 16:53 40.46004 -3.56527 1979 ft 20 kts 347°
2026-05-04 16:53 40.46535 -3.56495 1981 ft 26 kts
2026-05-04 16:54 40.46719 -3.56485 1980 ft 26 kts
2026-05-04 16:55 40.47345 -3.56714 1984 ft 20 kts 321°
2026-05-04 16:55 40.47552 -3.56932 1987 ft 19 kts 321°
2026-05-04 16:56 40.47780 -3.57157 1992 ft 22 kts 328°
2026-05-04 16:56 40.48167 -3.57552 2003 ft 25 kts 320°
2026-05-04 16:57 40.48305 -3.57701 2007 ft 25 kts 329°
2026-05-04 16:57 40.48571 -3.57913 2013 ft 18 kts 331°
2026-05-04 16:58 40.48911 -3.57935 2013 ft 16 kts 359°
2026-05-04 16:58 40.49026 -3.57935 2013 ft 17 kts 359°
2026-05-04 16:59 40.49246 -3.57844 2010 ft 20 kts 86°
2026-05-04 17:00 40.49459 -3.57464 1999 ft 0 kts 359°
2026-05-04 17:00 40.50925 -3.57470 1994 ft 170 kts 358°
2026-05-04 17:01 40.53560 -3.57458 3267 ft 188 kts 355°
2026-05-04 17:01 40.56329 -3.57204 4102 ft 223 kts 13°
2026-05-04 17:02 40.59566 -3.55917 4885 ft 266 kts 14°
2026-05-04 17:02 40.63153 -3.54475 6479 ft 276 kts 10°
2026-05-04 17:03 40.65053 -3.54114 7237 ft 280 kts
2026-05-04 17:03 40.66995 -3.53944 8059 ft 283 kts
2026-05-04 17:03 40.70736 -3.52441 9527 ft 297 kts 39°
2026-05-04 17:04 40.73316 -3.48045 10722 ft 318 kts 55°
2026-05-04 17:04 40.75923 -3.42962 11653 ft 352 kts 54°
2026-05-04 17:05 40.78800 -3.37406 12676 ft 382 kts 54°
2026-05-04 17:05 40.81887 -3.31442 13907 ft 406 kts 55°
2026-05-04 17:06 40.84966 -3.25095 15705 ft 417 kts 64°
2026-05-04 17:06 40.86008 -3.21497 16507 ft 424 kts 74°
2026-05-04 17:07 40.87535 -3.13881 18130 ft 436 kts 76°
2026-05-04 17:07 40.88045 -3.11279 18653 ft 441 kts 76°
2026-05-04 17:07 40.89074 -3.06031 19736 ft 448 kts 76°
2026-05-04 17:07 40.89858 -3.02031 20552 ft 453 kts 76°
2026-05-04 17:08 40.90647 -2.97996 21301 ft 459 kts 75°
2026-05-04 17:08 40.92256 -2.89754 22757 ft 470 kts 76°
2026-05-04 17:08 40.93072 -2.85563 23443 ft 476 kts 76°
2026-05-04 17:09 40.93896 -2.81322 24141 ft 480 kts 76°
2026-05-04 17:09 40.94728 -2.77034 24740 ft 486 kts 76°
2026-05-04 17:09 40.95571 -2.72679 25268 ft 493 kts 76°
2026-05-04 17:10 40.97293 -2.63753 26433 ft 504 kts 76°
2026-05-04 17:10 40.99913 -2.50076 28090 ft 520 kts 76°
2026-05-04 17:11 41.00906 -2.45459 28651 ft 525 kts 70°
2026-05-04 17:11 41.02372 -2.41024 29209 ft 530 kts 61°
2026-05-04 17:11 41.06681 -2.33171 30575 ft 528 kts 43°
2026-05-04 17:12 41.09385 -2.29946 31260 ft 524 kts 37°
2026-05-04 17:12 41.15054 -2.23970 32509 ft 522 kts 36°
2026-05-04 17:13 41.23533 -2.15005 34169 ft 519 kts 36°
2026-05-04 17:14 41.31978 -2.06006 34960 ft 520 kts 37°
2026-05-04 17:14 41.34785 -2.03004 34962 ft 517 kts 36°
2026-05-04 17:14 41.40381 -1.97004 35093 ft 518 kts 37°
2026-05-04 17:15 41.43197 -1.93979 34856 ft 522 kts 36°
2026-05-04 17:16 41.54431 -1.81870 34952 ft 520 kts 37°
2026-05-04 17:17 41.65657 -1.69712 34945 ft 519 kts 37°
2026-05-04 17:18 41.76844 -1.57539 34939 ft 519 kts 37°
2026-05-04 17:19 41.88035 -1.45304 34931 ft 519 kts 37°
2026-05-04 17:20 41.99068 -1.33187 34915 ft 520 kts 38°
2026-05-04 17:20 42.07525 -1.23859 34922 ft 520 kts 38°
2026-05-04 17:21 42.18628 -1.11567 34922 ft 521 kts 38°
2026-05-04 17:22 42.24203 -1.05372 34919 ft 520 kts 38°
2026-05-04 17:23 42.35366 -0.92925 34946 ft 519 kts 38°
2026-05-04 17:24 42.43491 -0.83284 34941 ft 521 kts 49°
2026-05-04 17:25 42.52394 -0.67822 34952 ft 520 kts 52°
2026-05-04 17:26 42.61189 -0.52275 34957 ft 520 kts 53°
2026-05-04 17:27 42.72118 -0.32844 34958 ft 519 kts 53°
2026-05-04 17:28 42.80855 -0.17266 34967 ft 522 kts 52°
2026-05-04 17:29 42.94573 0.05488 34985 ft 518 kts 52°
2026-05-04 17:31 43.05959 0.24559 34997 ft 521 kts 52°
2026-05-04 17:32 43.17275 0.43654 34994 ft 518 kts 52°
2026-05-04 17:33 43.26306 0.58986 34972 ft 517 kts 52°
2026-05-04 17:34 43.35303 0.74341 34955 ft 515 kts 53°
2026-05-04 17:35 43.46476 0.93523 34857 ft 516 kts 53°
2026-05-04 17:36 43.50928 1.01203 34949 ft 516 kts 53°
2026-05-04 17:36 43.55388 1.08915 34938 ft 514 kts 53°
2026-05-04 17:37 43.59834 1.16623 34949 ft 515 kts 53°
2026-05-04 17:37 43.64246 1.24293 34937 ft 514 kts 54°
2026-05-04 17:38 43.68670 1.32008 34926 ft 514 kts 54°
2026-05-04 17:38 43.72931 1.39951 34960 ft 516 kts 56°
2026-05-04 17:39 43.79269 1.51892 34954 ft 516 kts 55°
2026-05-04 17:39 43.83490 1.59854 34917 ft 514 kts 55°
2026-05-04 17:40 43.87608 1.67633 34912 ft 515 kts 56°
2026-05-04 17:40 43.91860 1.75685 34904 ft 514 kts 56°
2026-05-04 17:41 43.96080 1.83704 34910 ft 515 kts 56°
2026-05-04 17:41 44.00149 1.91845 34896 ft 515 kts 56°
2026-05-04 17:42 44.04215 2.00041 34885 ft 516 kts 56°
2026-05-04 17:42 44.08258 2.08201 34881 ft 515 kts 57°
2026-05-04 17:43 44.12257 2.16286 34874 ft 517 kts 57°
2026-05-04 17:43 44.16263 2.24404 34887 ft 521 kts 57°
2026-05-04 17:44 44.20348 2.32702 34887 ft 519 kts 57°
2026-05-04 17:44 44.24414 2.40986 34898 ft 521 kts 57°
2026-05-04 17:45 44.28451 2.49230 34907 ft 520 kts 58°
2026-05-04 17:45 44.32437 2.57395 34922 ft 521 kts 58°
2026-05-04 17:46 44.36476 2.65693 34920 ft 520 kts 59°
2026-05-04 17:46 44.40496 2.73974 34914 ft 523 kts 59°
2026-05-04 17:47 44.44571 2.82392 34914 ft 521 kts 59°
2026-05-04 17:47 44.48602 2.90744 34920 ft 522 kts 59°
2026-05-04 17:48 44.52630 2.99114 34919 ft 521 kts 59°
2026-05-04 17:48 44.56662 3.07518 34927 ft 520 kts 59°
2026-05-04 17:49 44.60657 3.15914 34929 ft 518 kts 62°
2026-05-04 17:49 44.64207 3.24595 34935 ft 517 kts 64°
2026-05-04 17:50 44.67721 3.33369 34942 ft 515 kts 65°
2026-05-04 17:50 44.71219 3.42126 34951 ft 515 kts 64°
2026-05-04 17:51 44.74706 3.50880 34949 ft 514 kts 64°
2026-05-04 17:51 44.78179 3.59624 34945 ft 512 kts 65°
2026-05-04 17:52 44.81605 3.68274 34941 ft 508 kts 65°
2026-05-04 17:52 44.85045 3.76992 34947 ft 511 kts 65°
2026-05-04 17:53 44.88482 3.85720 34959 ft 507 kts 66°
2026-05-04 17:53 44.91852 3.94308 34956 ft 503 kts 66°
2026-05-04 17:54 44.95205 4.02883 34963 ft 504 kts 66°
2026-05-04 17:54 44.98566 4.11500 34963 ft 501 kts 66°
2026-05-04 17:55 45.01930 4.20160 34960 ft 507 kts 65°
2026-05-04 17:55 45.05336 4.28951 34971 ft 510 kts 65°
2026-05-04 17:56 45.08720 4.37710 34973 ft 509 kts 65°
2026-05-04 17:56 45.12060 4.46383 34949 ft 511 kts 65°
2026-05-04 17:57 45.15439 4.55188 34946 ft 517 kts 65°
2026-05-04 17:57 45.18852 4.64108 34956 ft 516 kts 64°
2026-05-04 17:58 45.22254 4.73026 34960 ft 517 kts 65°
2026-05-04 17:58 45.25667 4.82005 34960 ft 518 kts 64°
2026-05-04 17:59 45.29083 4.91021 34962 ft 519 kts 64°
2026-05-04 18:00 45.34214 5.04619 34959 ft 522 kts 64°
2026-05-04 18:00 45.37618 5.13675 34975 ft 521 kts 64°
2026-05-04 18:01 45.41030 5.22784 34971 ft 521 kts 64°
2026-05-04 18:01 45.44430 5.31894 34970 ft 521 kts 64°
2026-05-04 18:02 45.50035 5.45002 34980 ft 519 kts 48°
2026-05-04 18:02 45.55275 5.52104 34993 ft 521 kts 40°
2026-05-04 18:03 45.60651 5.58939 35003 ft 519 kts 40°
2026-05-04 18:03 45.66011 5.65783 35019 ft 522 kts 41°
2026-05-04 18:04 45.71391 5.72682 35017 ft 519 kts 41°
2026-05-04 18:05 45.79470 5.83055 35014 ft 519 kts 41°
2026-05-04 18:05 45.84843 5.89972 35021 ft 521 kts 41°
2026-05-04 18:06 45.92872 6.00345 35032 ft 519 kts 41°
2026-05-04 18:06 45.98221 6.07281 35031 ft 518 kts 41°
2026-05-04 18:07 46.03552 6.14212 35041 ft 516 kts 41°
2026-05-04 18:07 46.08850 6.21119 35040 ft 516 kts 41°
2026-05-04 18:08 46.13932 6.28206 35035 ft 517 kts 44°
2026-05-04 18:08 46.19011 6.35475 35033 ft 516 kts 44°
2026-05-04 18:09 46.29148 6.49989 35047 ft 516 kts 43°
2026-05-04 18:10 46.34213 6.57258 35050 ft 514 kts 44°
2026-05-04 18:10 46.39259 6.64516 35048 ft 514 kts 44°
2026-05-04 18:11 46.44226 6.71677 35061 ft 513 kts 44°
2026-05-04 18:11 46.49266 6.78962 35049 ft 513 kts 45°
2026-05-04 18:12 46.54302 6.86262 35054 ft 512 kts 44°
2026-05-04 18:12 46.58934 6.94035 35075 ft 515 kts 51°
2026-05-04 18:13 46.63367 7.02022 35062 ft 512 kts 51°
2026-05-04 18:14 46.69984 7.13989 35059 ft 511 kts 51°
2026-05-04 18:14 46.74429 7.22050 35051 ft 510 kts 51°
2026-05-04 18:15 46.83261 7.38137 35035 ft 509 kts 51°
2026-05-04 18:16 46.87647 7.46165 35030 ft 508 kts 51°
2026-05-04 18:16 46.92042 7.54245 35037 ft 508 kts 51°
2026-05-04 18:17 46.98594 7.66334 35031 ft 507 kts 52°
2026-05-04 18:18 47.05108 7.78403 35027 ft 506 kts 52°
2026-05-04 18:18 47.09448 7.86476 35029 ft 504 kts 52°
2026-05-04 18:19 47.15515 7.98681 35040 ft 503 kts 58°
2026-05-04 18:19 47.19231 8.07394 35034 ft 503 kts 59°
2026-05-04 18:20 47.22910 8.16052 35029 ft 500 kts 59°
2026-05-04 18:20 47.26596 8.24750 35016 ft 502 kts 59°
2026-05-04 18:21 47.30723 8.32903 35014 ft 499 kts 45°
2026-05-04 18:21 47.36201 8.39132 35020 ft 501 kts 32°
2026-05-04 18:22 47.41985 8.44717 35019 ft 498 kts 32°
2026-05-04 18:22 47.47769 8.50313 35004 ft 500 kts 33°
2026-05-04 18:23 47.53538 8.55915 35001 ft 497 kts 33°
2026-05-04 18:23 47.59323 8.61551 35008 ft 499 kts 33°
2026-05-04 18:24 47.65047 8.67144 35006 ft 499 kts 33°
2026-05-04 18:24 47.70797 8.72778 35001 ft 499 kts 33°
2026-05-04 18:25 47.76562 8.78441 34996 ft 497 kts 34°
2026-05-04 18:25 47.82307 8.84102 34993 ft 497 kts 34°
2026-05-04 18:26 47.88064 8.89789 34994 ft 497 kts 33°
2026-05-04 18:26 47.93816 8.95487 34988 ft 498 kts 33°
2026-05-04 18:27 47.99578 9.01211 34975 ft 497 kts 34°
2026-05-04 18:27 48.05307 9.06917 34973 ft 499 kts 34°
2026-05-04 18:28 48.11028 9.12631 34969 ft 497 kts 34°
2026-05-04 18:28 48.15742 9.17201 34964 ft 499 kts 28°
2026-05-04 18:29 48.23265 9.21567 34971 ft 495 kts 17°
2026-05-04 18:29 48.29818 9.24755 34976 ft 497 kts 17°
2026-05-04 18:30 48.39599 9.29549 34968 ft 496 kts 17°
2026-05-04 18:31 48.46145 9.32776 34971 ft 495 kts 17°
2026-05-04 18:31 48.52639 9.35989 34969 ft 496 kts 17°
2026-05-04 18:32 48.59155 9.39223 34972 ft 495 kts 17°
2026-05-04 18:32 48.65658 9.42460 34972 ft 496 kts 17°
2026-05-04 18:33 48.71794 9.45742 34972 ft 497 kts 24°
2026-05-04 18:33 48.77661 9.51182 34974 ft 497 kts 34°
2026-05-04 18:34 48.83290 9.57138 34974 ft 496 kts 34°
2026-05-04 18:34 48.88938 9.63136 34970 ft 496 kts 34°
2026-05-04 18:35 48.94515 9.69075 34971 ft 496 kts 35°
2026-05-04 18:35 49.00156 9.75097 34977 ft 496 kts 35°
2026-05-04 18:36 49.05792 9.81131 34972 ft 496 kts 35°
2026-05-04 18:36 49.11238 9.86977 34977 ft 496 kts 35°
2026-05-04 18:37 49.16865 9.93035 34975 ft 496 kts 35°
2026-05-04 18:37 49.22484 9.99101 34971 ft 497 kts 35°
2026-05-04 18:38 49.28107 10.05188 34974 ft 497 kts 34°
2026-05-04 18:38 49.33718 10.11280 34970 ft 497 kts 34°
2026-05-04 18:39 49.39325 10.17384 34970 ft 497 kts 34°
2026-05-04 18:39 49.44923 10.23497 34968 ft 498 kts 34°
2026-05-04 18:40 49.50500 10.29604 34968 ft 496 kts 34°
2026-05-04 18:40 49.56105 10.35759 34485 ft 501 kts 34°
2026-05-04 18:40 49.58925 10.38863 34066 ft 499 kts 34°
2026-05-04 18:41 49.61717 10.41940 33658 ft 498 kts 34°
2026-05-04 18:41 49.64536 10.45052 33239 ft 501 kts 34°
2026-05-04 18:41 49.67350 10.48162 32825 ft 502 kts 34°
2026-05-04 18:41 49.70167 10.51280 32417 ft 502 kts 34°
2026-05-04 18:42 49.73002 10.54421 32002 ft 503 kts 34°
2026-05-04 18:42 49.75959 10.57230 31589 ft 503 kts 25°
2026-05-04 18:42 49.79074 10.59534 31182 ft 505 kts 23°
2026-05-04 18:42 49.82233 10.61789 30950 ft 501 kts 23°
2026-05-04 18:43 49.85322 10.63993 30942 ft 502 kts 22°
2026-05-04 18:43 49.91540 10.68438 30933 ft 504 kts 24°
2026-05-04 18:44 49.97888 10.72988 30535 ft 507 kts 23°
2026-05-04 18:44 50.00015 10.74516 30265 ft 506 kts 23°
2026-05-04 18:44 50.04236 10.77554 29726 ft 499 kts 23°
2026-05-04 18:44 50.07369 10.79812 29320 ft 494 kts 23°
2026-05-04 18:45 50.10332 10.81951 28972 ft 489 kts 23°
2026-05-04 18:45 50.16488 10.86402 28931 ft 491 kts 23°
2026-05-04 18:46 50.22643 10.90866 28926 ft 490 kts 23°
2026-05-04 18:46 50.28813 10.95352 28933 ft 491 kts 23°
2026-05-04 18:47 50.34989 10.99856 28934 ft 490 kts 23°
2026-05-04 18:47 50.40746 11.05604 28391 ft 498 kts 40°
2026-05-04 18:47 50.43200 11.09379 27803 ft 495 kts 45°
2026-05-04 18:48 50.45556 11.13271 27207 ft 491 kts 46°
2026-05-04 18:48 50.47880 11.17131 26644 ft 486 kts 46°
2026-05-04 18:48 50.50181 11.20961 26108 ft 481 kts 46°
2026-05-04 18:48 50.52460 11.24759 25580 ft 476 kts 46°
2026-05-04 18:49 50.54707 11.28509 25058 ft 471 kts 46°
2026-05-04 18:49 50.56938 11.32238 24531 ft 466 kts 46°
2026-05-04 18:49 50.59142 11.35928 24003 ft 461 kts 46°
2026-05-04 18:49 50.61320 11.39579 23484 ft 456 kts 46°
2026-05-04 18:50 50.63476 11.43199 22971 ft 452 kts 46°
2026-05-04 18:50 50.65610 11.46787 22466 ft 447 kts 46°
2026-05-04 18:50 50.67720 11.50340 21966 ft 444 kts 46°
2026-05-04 18:50 50.69819 11.53878 21460 ft 441 kts 46°
2026-05-04 18:51 50.71899 11.57390 20965 ft 438 kts 46°
2026-05-04 18:51 50.73970 11.60891 20467 ft 435 kts 46°
2026-05-04 18:51 50.76017 11.64357 19957 ft 431 kts 46°
2026-05-04 18:51 50.77967 11.67663 19477 ft 427 kts 47°
2026-05-04 18:52 50.79940 11.71012 18987 ft 423 kts 47°
2026-05-04 18:52 50.81929 11.74393 18484 ft 420 kts 47°
2026-05-04 18:52 50.83908 11.77762 17986 ft 417 kts 47°
2026-05-04 18:52 50.85871 11.81107 17498 ft 414 kts 47°
2026-05-04 18:53 50.87821 11.84434 17016 ft 411 kts 47°
2026-05-04 18:53 50.89752 11.87734 16530 ft 407 kts 47°
2026-05-04 18:53 50.91665 11.91007 16041 ft 404 kts 47°
2026-05-04 18:53 50.93565 11.94262 15553 ft 401 kts 47°
2026-05-04 18:54 50.95443 11.97484 15073 ft 397 kts 47°
2026-05-04 18:54 50.97311 12.00692 14586 ft 394 kts 47°
2026-05-04 18:54 50.99159 12.03871 14087 ft 391 kts 47°
2026-05-04 18:54 51.00992 12.07027 13597 ft 388 kts 47°
2026-05-04 18:55 51.02812 12.10165 13096 ft 385 kts 47°
2026-05-04 18:55 51.06419 12.16395 12103 ft 380 kts 47°
2026-05-04 18:55 51.08203 12.19483 11620 ft 378 kts 47°
2026-05-04 18:56 51.09976 12.22554 11134 ft 376 kts 47°
2026-05-04 18:56 51.11662 12.25481 10661 ft 374 kts 47°
2026-05-04 18:56 51.13406 12.28509 10153 ft 372 kts 47°
2026-05-04 18:56 51.15149 12.31540 9660 ft 370 kts 47°
2026-05-04 18:57 51.16875 12.34545 9176 ft 368 kts 47°
2026-05-04 18:57 51.18600 12.37552 8678 ft 366 kts 47°
2026-05-04 18:57 51.20312 12.40540 8175 ft 364 kts 47°
2026-05-04 18:57 51.22011 12.43509 7724 ft 361 kts 47°
2026-05-04 18:58 51.23697 12.46457 7267 ft 359 kts 47°
2026-05-04 18:58 51.25364 12.49376 6806 ft 356 kts 47°
2026-05-04 18:58 51.27019 12.52279 6351 ft 353 kts 47°
2026-05-04 18:58 51.28666 12.55169 5887 ft 351 kts 47°
2026-05-04 18:59 51.30171 12.58172 5577 ft 343 kts 58°
2026-05-04 18:59 51.31028 12.61659 5250 ft 336 kts 77°
2026-05-04 18:59 51.31386 12.65234 5020 ft 326 kts 83°
2026-05-04 18:59 51.31597 12.68468 4991 ft 313 kts 84°
2026-05-04 19:00 51.31819 12.72006 4988 ft 297 kts 84°
2026-05-04 19:00 51.32021 12.75204 4987 ft 282 kts 84°
2026-05-04 19:00 51.32215 12.78238 4987 ft 268 kts 84°
2026-05-04 19:00 51.32401 12.81129 4988 ft 254 kts 84°
2026-05-04 19:01 51.32578 12.83880 4992 ft 246 kts 84°
2026-05-04 19:01 51.32754 12.86580 5000 ft 243 kts 84°
2026-05-04 19:01 51.33188 12.89150 4988 ft 241 kts 58°
2026-05-04 19:01 51.34363 12.91029 4987 ft 240 kts 26°
2026-05-04 19:02 51.35949 12.91663 4988 ft 237 kts 355°
2026-05-04 19:02 51.37491 12.90895 4990 ft 234 kts 323°
2026-05-04 19:02 51.38556 12.88966 4999 ft 234 kts 298°
2026-05-04 19:02 51.39288 12.86632 5015 ft 233 kts 295°
2026-05-04 19:03 51.39979 12.84292 5009 ft 232 kts 295°
2026-05-04 19:03 51.40668 12.81951 5011 ft 233 kts 295°
2026-05-04 19:03 51.41361 12.79600 4921 ft 235 kts 295°
2026-05-04 19:03 51.42055 12.77246 4722 ft 233 kts 295°
2026-05-04 19:04 51.42674 12.74871 4527 ft 230 kts 287°
2026-05-04 19:04 51.43041 12.72411 4369 ft 223 kts 279°
2026-05-04 19:04 51.43216 12.69984 4215 ft 215 kts 274°
2026-05-04 19:04 51.43258 12.67627 4071 ft 208 kts 270°
2026-05-04 19:05 51.43219 12.65353 3924 ft 201 kts 268°
2026-05-04 19:05 51.43133 12.63169 3782 ft 193 kts 266°
2026-05-04 19:05 51.43026 12.61054 3734 ft 192 kts 266°
2026-05-04 19:05 51.42920 12.58942 3688 ft 189 kts 266°
2026-05-04 19:06 51.42824 12.56827 3661 ft 190 kts 267°
2026-05-04 19:06 51.42730 12.54718 3610 ft 189 kts 267°
2026-05-04 19:06 51.42637 12.52619 3561 ft 189 kts 267°
2026-05-04 19:06 51.42543 12.50513 3489 ft 191 kts 267°
2026-05-04 19:07 51.42449 12.48388 3230 ft 191 kts 267°
2026-05-04 19:07 51.42354 12.46278 2996 ft 187 kts 267°
2026-05-04 19:07 51.42260 12.44226 2756 ft 182 kts 267°
2026-05-04 19:07 51.42169 12.42273 2531 ft 170 kts 267°
2026-05-04 19:08 51.42084 12.40436 2311 ft 163 kts 268°
2026-05-04 19:08 51.42002 12.38638 2098 ft 161 kts 268°
2026-05-04 19:08 51.41921 12.36859 1882 ft 160 kts 268°
2026-05-04 19:08 51.41840 12.35086 1669 ft 160 kts 268°
2026-05-04 19:09 51.41759 12.33327 1457 ft 160 kts 267°
2026-05-04 19:09 51.41678 12.31557 1243 ft 160 kts 267°
2026-05-04 19:09 51.41596 12.29787 1027 ft 159 kts 266°
2026-05-04 19:09 51.41514 12.28022 813 ft 159 kts 266°
2026-05-04 19:10 51.41432 12.26263 601 ft 158 kts 266°
2026-05-04 19:10 51.41355 12.24541 473 ft 142 kts 266°
2026-05-04 19:10 51.41294 12.23265 471 ft 87 kts 265°
2026-05-04 19:10 51.41256 12.22486 469 ft 51 kts 265°
2026-05-04 19:11 51.41225 12.21985 462 ft 37 kts 255°
2026-05-04 19:11 51.41133 12.21675 458 ft 22 kts 234°
2026-05-04 19:11 51.41074 12.21528 455 ft 11 kts 240°
2026-05-04 19:11 51.41066 12.21505 455 ft 0 kts 244°
2026-05-04 19:12 51.41047 12.21459 454 ft 5 kts 214°
2026-05-04 19:12 51.41003 12.21448 454 ft 7 kts 181°
2026-05-04 19:13 51.40953 12.21410 454 ft 9 kts 232°
2026-05-04 19:13 51.40937 12.21290 452 ft 13 kts 266°
2026-05-04 19:13 51.40931 12.21119 448 ft 17 kts 267°
2026-05-04 19:13 51.40923 12.20914 446 ft 19 kts 266°
2026-05-04 19:14 51.40912 12.20684 442 ft 21 kts 265°
2026-05-04 19:14 51.40919 12.20432 439 ft 23 kts 279°
2026-05-04 19:14 51.40912 12.20157 435 ft 25 kts 266°
2026-05-04 19:14 51.40905 12.19984 433 ft 7 kts 265°
2026-05-04 19:15 51.40903 12.19935 432 ft 0 kts 265°
2026-05-04 19:15 51.40902 12.19932 432 ft 0 kts 256°
2026-05-04 19:15 51.40889 12.19923 432 ft 6 kts 167°
2026-05-04 19:15 51.40855 12.19945 433 ft 6 kts 162°
2026-05-04 19:16 51.40821 12.19956 433 ft 0 kts 170°
2026-05-04 19:16 51.40813 12.19957 433 ft 0 kts 175°